Find Galaxy 5

NORAD ID: 21906 Int'l Des: 1992-013 Owner: HCG Country: US operational
HEOCIRCULAR

Aktuelle Ansicht

3D-Globus wird geladen...

Über Galaxy 5

Beschreibung wird geladen...

Nächste Überflüge

Passes for default location (London). Set your location on the main map for personalized predictions.

Höhenverlauf

Loading altitude history...

Zweizeiliger Elementsatz

1 21906U 92013A 26150.42694311 -.00000261 00000-0 00000+0 0 9996
2 21906 13.4591 18.4762 0014021 89.0548 269.6973 0.99292286 46068
Epoch: 30. Mai 2026 • Age: 19 hours

Aktueller Status

Höhe 36123.8 km
Geschwindigkeit 3.06 km/s
Subsatellitenpunkt -13.19°S, 26.91°W
Startdatum 14. März 1992
Alter 34.2 years
Typ other

Technische Details

Klassifizierung Payload
Masse 782.00 kg
Trockenmasse 600.00 kg
Gesamtmasse 1412.00 kg
Länge 7.00 m
Durchmesser 2.20 m
Spannweite 7.00 m
Form Cyl
Hersteller HSES
Bus-Typ HS-376
Phasenstatus Renamed
Besitzer/Staat HCG/US

Most Searched